Regional Weather Roundup
Issued by NWS

Home | Current Version | Previous Version | Text Only | Print | Product List | Glossary Off
Versions: 1 2 3 4 5 6 7 8 9 10 11 12 13 14 15 16 17 18 19 20 21 22 23 24 25 26 27 28 29 30 31 32 33 34 35 36 37 38 39 40 41 42 43 44 45 46 47 48 49 50

000
ASUS43 KFSD 030302
RWRSD

WEATHER ROUNDUP FOR SOUTH DAKOTA
NATIONAL WEATHER SERVICE SIOUX FALLS SD
1000 PM CDT WED SEP 02 2015

NOTE: "FAIR" INDICATES FEW OR NO CLOUDS BELOW 12,000 FEET WITH NO
SIGNIFICANT WEATHER AND/OR OBSTRUCTIONS TO VISIBILITY.


SDZ001>005-009-010-012>017-030400-
NORTHWEST AND NORTH CENTRAL SOUTH DAKOTA

CITY           SKY/WX    TMP DP  RH WIND       PRES   REMARKS
BUFFALO          N/A     76  52  43 SE9       29.70R
FAITH            N/A     81  53  37 SE12      29.75R
MOBRIDGE       CLEAR     77  74  90 E13       29.72R
$$

SDZ012>016-024>037-041>051-057-063-072>074-030400-
SOUTHWEST AND SOUTH CENTRAL SOUTH DAKOTA

CITY           SKY/WX    TMP DP  RH WIND       PRES   REMARKS
RAPID CTY ARPT CLEAR     77  50  38 S3        29.80R
PIERRE         CLEAR     79  67  66 E7        29.71R
CUSTER         CLEAR     75  29  18 S3        30.00R
ELLSWORTH AFB  CLEAR     79  51  37 SE12      29.79R
PHILIP         CLEAR     80  52  37 S3        29.73R
PINE RIDGE     CLEAR     70  48  45 NE5       29.84R
WINNER         FAIR      85  55  35 S16       29.77R
$$

SDZ004>011-016>023-039-040-030400-
NORTHEAST SOUTH DAKOTA

CITY           SKY/WX    TMP DP  RH WIND       PRES   REMARKS
ABERDEEN       CLEAR     77  73  87 SE8       29.77R
WATERTOWN      CLEAR     77  72  84 SE9       29.84R
BROOKINGS      CLEAR     75  72  88 SE9       29.87R
$$

SDZ017-020-022-023-036>040-048>070-030400-
SOUTHEAST SOUTH DAKOTA

CITY           SKY/WX    TMP DP  RH WIND       PRES   REMARKS
SIOUX FALLS    PTCLDY    76  70  82 SE7       29.84R
HURON          CLEAR     78  73  84 SE12      29.77R
MITCHELL       CLEAR     76  73  91 SE8       29.79R
YANKTON        CLEAR     75  72  88 SE6       29.81R
$$

ABBREVIATIONS USED IN REMARKS
   TC - TEMPERATURE IN CELSIUS
  WCI - WIND CHILL INDEX
   HX - HEAT INDEX
  VSB - VISIBILITY



USA.gov is the U.S. government's official web portal to all federal, state and local government web resources and services.